Find Starlink 5257

NORAD ID: 55316 Int'l Des: 2023-010 Owner: SPXS Country: US Constellation: starlink operational
LEOCIRCULAR

Live-Position

3D-Globus wird geladen...

Über Starlink 5257

Beschreibung wird geladen...

Nächste Überflüge

Passes for default location (London). Set your location on the main map for personalized predictions.

Höhenverlauf

Loading altitude history...

Zweizeiliger Elementsatz

1 55316U 23010AZ 26106.73250227 .00000416 00000-0 42620-4 0 9998
2 55316 69.9987 268.4310 0003120 271.9835 88.0966 14.98327604180342
Epoch: 16. Apr. 2026 • Age: 23 hours

Aktueller Status

Höhe 585.7 km
Geschwindigkeit 7.57 km/s
Subsatellitenpunkt 70.03°N, 91.12°W
Startdatum 19. Jan. 2023
Alter 3.2 years
Typ internet

Technische Details

Klassifizierung Payload
Masse 305.00 kg
Trockenmasse 290.00 kg
Gesamtmasse 305.00 kg
Länge 0.20 m
Durchmesser 2.80 m
Spannweite 9.00 m
Form Box + pan
Hersteller SPXS
Bus-Typ Starlink
Phasenstatus In Orbit
Besitzer/Staat SPXS/US

Most Searched